sat.trackr.live / text

‹ back to catalog

STARLINK-4496

NORAD 53412 · 2022-097AA

PAYLOAD ACTIVE UNKNOWN

§ Identity

Operator
Country
US
Launch date
2022-08-10
Launch site
AFETR
Launch vehicle
Mass (kg)
RCS (m²)

Purposes: comms

External: N2YO · Heavens-Above · Gunter

§ Orbital elements

Epoch: 2026-09-20T04:00:03.000096Z

Period
94.11 min
Inclination
53.1608°
Eccentricity
0.0000820
Mean motion
15.30194574 rev/d
Perigee alt
474.7 km
Apogee alt
475.8 km
Semi-major
6,853.4 km
B*
3.1445e-3
RAAN
318.8475°
Arg perigee
65.4293°
Mean anomaly
316.2655°
Rev number
573

§ Raw data

STARLINK-44961 53412U 22097AA  26263.16670139  .00093941  00000+0  31445-2 0  99912 53412  53.1608 318.8475 0000820  65.4293 316.2655 15.30194574  5737

JSON: /api/v1/satellites/53412 · /tle

For live sub-satellite position, see the globe view (requires WebGL).

§ Visibility from observer

Set your observer location to see the next 7 days of passes ≥ 10°. The values pass through the URL so the page stays shareable.

No JS? Fill the form by hand. The geolocation button needs JavaScript.